Overview Statistics Trail Chart Weather Telemetry Raw packets
 

This is the latest recevied weather packets stored in our database for station/object K7FLA. If no packets are shown the sender has not sent any weather packets the latest 10 day(s).

<< 75 76 77 78 79 80 81 >>
Time Temp. Humidity Pressure Rain* Wind** Luminosity Snow
1788126854 36.11° C 26% 1093.8 hPa 0 mm - 588 W/m² -
1788126549 35.56° C 26% 1093.7 hPa 0 mm - 588 W/m² -
1788126245 35.56° C 26% 1093.9 hPa 0 mm - 610 W/m² -
1788125944 35.56° C 26% 1094 hPa 0 mm - 623 W/m² -
1788125640 35.56° C 28% 1094 hPa 0 mm - 629 W/m² -
1788125335 35.56° C 26% 1093.9 hPa 0 mm - 648 W/m² -
1788125031 35.56° C 25% 1093.9 hPa 0 mm - 653 W/m² -
1788124730 35.56° C 28% 1094.2 hPa 0 mm - 665 W/m² -
1788124425 35.56° C 27% 1094.3 hPa 0 mm - 674 W/m² -
1788124121 35.56° C 27% 1094.5 hPa 0 mm - 688 W/m² -
1788123820 35.56° C 26% 1094.2 hPa 0 mm - 694 W/m² -
1788123518 35.56° C 26% 1094.3 hPa 0 mm - 702 W/m² -
1788123217 35.56° C 27% 1094.2 hPa 0 mm - 701 W/m² -
1788122912 35.56° C 27% 1094.6 hPa 0 mm - 724 W/m² -
1788122611 35.56° C 28% 1094.5 hPa 0 mm - 731 W/m² -
1788122306 35.56° C 27% 1094.7 hPa 0 mm - 735 W/m² -
1788122003 35.56° C 26% 1094.3 hPa 0 mm - 741 W/m² -
1788121702 36.11° C 26% 1094.7 hPa 0 mm - 743 W/m² -
1788121398 36.67° C 25% 1094.9 hPa 0 mm - 754 W/m² -
1788121093 36.67° C 27% 1094.8 hPa 0 mm - 753 W/m² -
1788120787 36.67° C 27% 1094.7 hPa 0 mm - 765 W/m² -
1788120483 36.67° C 25% 1094.7 hPa 0 mm - 769 W/m² -
1788120181 36.67° C 27% 1095 hPa 0 mm - 765 W/m² -
1788119878 36.67° C 26% 1094.8 hPa 0 mm - 780 W/m² -
1788119577 36.67° C 27% 1094.8 hPa 0 mm - 775 W/m² -

* Rain latest hour (hover to see other rain measurements)
** Current wind speed in m/s (hover to see current wind gust speed)